Regional Weather Roundup
Issued by NWS

Home | Current Version | Previous Version | Text Only | Print | Product List | Glossary Off
Versions: 1 2 3 4 5 6 7 8 9 10 11 12 13 14 15 16 17 18 19 20 21 22 23 24 25 26 27 28 29 30 31 32 33 34 35 36 37 38 39 40 41 42 43 44 45 46 47 48 49 50

000
ASUS43 KLOT 230310
RWRIL

ILLINOIS REGIONAL WEATHER ROUNDUP
NATIONAL WEATHER SERVICE CHICAGO/ROMEOVILLE IL
1000 PM CDT WED OCT 22 2014

NOTE: "FAIR" INDICATES FEW OR NO CLOUDS BELOW 12,000 FEET WITH NO
SIGNIFICANT WEATHER AND/OR OBSTRUCTIONS TO VISIBILITY.

* THESE STATIONS ARE NOT UNDER NWS QUALITY CONTROL. THEY ALSO MAY NOT
  REPORT WEATHER SUCH AS PRECIPITATION OR FOG.

ILZ001-002-007-009-015-016-024-230400-
NORTHWEST ILLINOIS

CITY           SKY/WX    TMP DP  RH WIND       PRES   REMARKS
MOLINE         CLEAR     41  35  79 E6        30.23F
STERLING*      CLEAR     39  32  75 SE5       30.26S
SAVANNA*       CLEAR     42  35  74 SE7       30.24S
$$

ILZ003-004-008-010-011-017-018-230400-
NORTH CENTRAL ILLINOIS

CITY           SKY/WX    TMP DP  RH WIND       PRES   REMARKS
ROCKFORD       CLEAR     43  35  73 S6        30.28R
FREEPORT*      CLEAR     36  32  87 S6        30.27S WCI  31
ROCHELLE*      CLEAR     40  35  84 SE6       30.27R
DE KALB*       CLEAR     37  34  87 E5        30.27S WCI  34
PERU*          CLEAR     45  35  67 E3        30.27R
$$

ILZ005-006-012>014-019>023-230400-
NORTHEAST ILLINOIS

CITY           SKY/WX    TMP DP  RH WIND       PRES   REMARKS
CHICAGO-OHARE  CLEAR     40  35  83 CALM      30.27R
CHICAGO-MIDWAY CLEAR     49  38  65 CALM      30.28R
AURORA         FAIR      39  33  79 E5        30.27S
LANSING*       CLEAR     39  36  89 CALM      30.28R
JOLIET*        CLEAR     39  35  87 CALM      30.27S
WAUKEGAN       CLEAR     33  33 100 CALM      30.27S
DUPAGE AIRPORT CLEAR     42  35  76 CALM      30.27R
KANKAKEE*      CLEAR     39  36  87 NE5       30.28S
WHEELING       CLEAR     40  36  86 CALM      30.30R
MORRIS*        CLEAR     39  36  90 CALM      30.27R
ROMEOVILLE*    CLEAR     40  35  81 E3        30.27S
NORTHERLY ISL    N/A     49  41  74 SE7         N/A
$$

LMZ740>746-230400-
SOUTHERN LAKE MICHIGAN

STATION/POSITION SKY/WX   TEMP    WIND        PRES    VSBY  WAVE
                          AIR SEA DIR/SP/G                  HT/PER
                          (F)     (DEG/KT/KT) (MB)    (MI)  (FT/S)
SOUTHERN BUOY              50 54  110/ 10/ 12 1025.7R         1
WAUKEGAN HARBOR            48     160/  6/  8   N/A
HARRISON CRIB              50     120/  9/ 12   N/A
BURNHAM HARBOR             49     120/  6/  7   N/A
CALUMET HARBOR             51     100/  5/  7 1023.8R
MICHIGAN CITY              43     110/  8/ 10   N/A
$$

ILZ025>027-034>036-040-047-049-050-058-095>099-230400-
WEST-CENTRAL ILLINOIS

CITY           SKY/WX    TMP DP  RH WIND       PRES   REMARKS
QUINCY         CLEAR     47  39  74 SE6       30.22S
GALESBURG*     CLEAR     40  37  89 E5        30.24F
MACOMB*        CLEAR     38  35  89 SE3       30.26S
JACKSONVILLE*  CLEAR     43  38  81 E5        30.25R
PITTSFIELD*    CLEAR     44  41  88 CALM      30.25S
$$

ILZ028>032-037-038-041>044-048-051>054-059>061-230400-
CENTRAL ILLINOIS

CITY           SKY/WX    TMP DP  RH WIND       PRES   REMARKS
PONTIAC        CLEAR     38  33  81 E3        30.28R
BLOOMINGTON    CLEAR     44  35  70 SE5       30.27R
DECATUR        CLEAR     42  36  79 CALM      30.26R
PEORIA         FAIR      47  37  68 CALM      30.26R
LACON*         CLEAR     40  34  77 CALM      30.26R
LINCOLN*       CLEAR     41  36  83 CALM      30.26R
SPRINGFIELD    CLEAR     41  36  82 CALM      30.26R
TAYLORVILLE    CLEAR     43  37  81 CALM      30.26R
$$

ILZ033-039-045-046-055>057-062-063-230400-
EAST-CENTRAL ILLINOIS

CITY           SKY/WX    TMP DP  RH WIND       PRES   REMARKS
CHAMPAIGN      CLEAR     42  35  76 E8        30.26R
DANVILLE*      CLEAR     40  36  86 CALM      30.24R FOG
RANTOUL*       CLEAR     45  36  72 CALM      30.26R
MATTOON        CLEAR     44  38  79 CALM      30.25R
PARIS*         CLEAR     38  37  97 CALM      30.27R
$$

ILZ079-100>102-230400-
SOUTHWEST ILLINOIS

CITY           SKY/WX    TMP DP  RH WIND       PRES   REMARKS
ALTON          CLEAR     45  41  87 SE6       30.24S
BELLEVILLE     CLEAR     42  40  91 CALM      30.24R
CAHOKIA*       CLEAR     44  41  89 CALM      30.24R
SPARTA*          N/A     45  41  87 CALM      30.25S FOG
$$

ILZ064>066-069>071-074>076-080>082-084>086-088>090-092>094-230400-
SOUTH-CENTRAL ILLINOIS

CITY           SKY/WX    TMP DP  RH WIND       PRES   REMARKS
CARBONDALE     CLEAR     42  39  89 CALM      30.25R
CAIRO*         CLEAR     46  42  84 CALM      30.23R
EFFINGHAM*     CLEAR     41  38  88 CALM      30.25S
MARION         CLEAR     45  43  93 CALM      30.25R
MT. VERNON     CLEAR     39  34  81 CALM      30.25S
CENTRALIA*     CLEAR     41  38  89 CALM      30.24F
SALEM*         CLEAR     45  43  93 CALM      30.24F
METROPOLIS*    CLEAR     44  44 100 CALM      30.22S
$$

ILZ067-068-072-073-078-083-087-091-230400-
SOUTHEAST ILLINOIS

CITY           SKY/WX    TMP DP  RH WIND       PRES   REMARKS
LAWRENCEVILLE  CLEAR     44  42  93 NE5       30.25S
FLORA*         CLEAR     42  40  91 CALM      30.25S
FAIRFIELD*     CLEAR     42  41  95 CALM      30.24R
HARRISBURG*    CLEAR     43  40  86 CALM      30.25R
ROBINSON*      CLEAR     41  40  97 CALM      30.26S
CARMI*         CLEAR     43  43  99 CALM      30.24R
$$

ABBREVIATIONS USED IN REMARKS
   TC - TEMPERATURE IN CELSIUS
  WCI - WIND CHILL INDEX
   HX - HEAT INDEX
  VSB - VISIBILITY
$$




USA.gov is the U.S. government's official web portal to all federal, state and local government web resources and services.